Home > Weather > Istanbul > Past weeks

Flag for Turkey Weather for the Past 2 Weeks in Istanbul, Turkey

Now
54 °F

Passing clouds.


Feels Like: 53 °F
Forecast: 53 / 60 °F
Wind: 3 mph from North

Location: Istanbul Ataturk Airport

Current Time: Feb 12, 2016 at 10:42:12 PM

Latest Report: Feb 12, 2016 at 9:50 PM


Visibility: N/A

Pressure: 29.92 "Hg

Humidity: 82%

Dew point: 48 °F

Location of IstanbulLocation

Historic Weather in Istanbul — Graph

°F

Istanbul Temperature Yesterday

Maximum temperature yesterday: 57 °F (at 2:20 PM)
Minimum temperature yesterday: 46 °F (at 11:20 AM)
Average temperature yesterday: 52 °F

High & Low Weather Summary for the Past Weeks

 TemperatureHumidityPressure
High59 °F (Feb 3, 1:50 PM)94% (Feb 11, 9:50 AM)30.42 "Hg (Feb 11, 9:50 AM)
Low34 °F (Feb 7, 4:50 AM)40% (Feb 7, 1:50 PM)29.71 "Hg (Feb 11, 4:50 AM)
Average48 °F72%30.15 "Hg
* Reported Jan 28 9:20 PM — Feb 12 9:20 PM, Istanbul, Weather by CustomWeather, © 2016

Note: Actual official high and low records may vary slightly from our data, if they occured in-between our weather recording intervals... More about our weather records

Advertising

Istanbul Weather History for the Previous 24 Hours

 ConditionsComfort  
Time TempWeatherWind HumidityBarometerVisibility
9:20 PM
Fri, Feb 12
55 °FPartly cloudy.7 mph82%29.92 "HgN/A
8:50 PM54 °FPartly cloudy.6 mph88%29.92 "HgN/A
8:20 PM54 °FPartly cloudy.6 mph88%29.95 "HgN/A
7:50 PM54 °FPartly cloudy.6 mph88%29.95 "HgN/A
7:20 PM52 °FPartly cloudy.7 mph94%29.95 "HgN/A
6:50 PM52 °FSprinkles. Partly cloudy.7 mph94%29.95 "HgN/A
6:20 PM54 °FSprinkles. Partly cloudy.15 mph88%29.95 "HgN/A
5:50 PM54 °FPartly cloudy.10 mph88%29.95 "HgN/A
5:20 PM54 °FSprinkles. Broken clouds.7 mph88%29.95 "HgN/A
4:50 PM54 °FSprinkles. Broken clouds.5 mph82%29.95 "HgN/A
4:20 PM54 °FSprinkles. Broken clouds.6 mph88%29.95 "HgN/A
3:50 PM54 °FSprinkles. Broken clouds.5 mph88%29.95 "HgN/A
3:20 PM54 °FBroken clouds.6 mph88%29.95 "HgN/A
2:50 PM54 °FBroken clouds.7 mph88%29.95 "HgN/A
2:20 PM54 °FSprinkles. Broken clouds.9 mph88%29.95 "Hg4 mi
1:50 PM55 °FBroken clouds.10 mph77%29.95 "HgN/A
1:20 PM57 °FPartly sunny.9 mph72%29.95 "HgN/A
12:50 PM57 °FPartly sunny.8 mph72%29.95 "HgN/A
12:20 PM57 °FPartly sunny.7 mph72%29.95 "HgN/A
11:50 AM57 °FPartly sunny.8 mph72%29.95 "HgN/A
11:20 AM55 °FPartly sunny.7 mph72%29.95 "HgN/A
10:50 AM55 °FPartly sunny.7 mph72%29.95 "HgN/A
10:20 AM55 °FScattered clouds.8 mph72%29.95 "HgN/A
9:50 AM54 °FBroken clouds.12 mph77%29.95 "HgN/A
9:20 AM55 °FBroken clouds.15 mph72%29.92 "HgN/A
8:50 AM54 °FBroken clouds.10 mph77%29.92 "HgN/A
8:20 AM54 °FBroken clouds.8 mph77%29.92 "HgN/A
7:50 AM54 °FBroken clouds.12 mph77%29.92 "HgN/A
7:20 AM52 °FBroken clouds.12 mph82%29.89 "HgN/A
6:50 AM52 °FPartly cloudy.12 mph82%29.89 "HgN/A
6:20 AM52 °FPartly cloudy.9 mph88%29.89 "HgN/A
5:50 AM52 °FPassing clouds.7 mph88%29.89 "HgN/A
4:50 AM52 °FSprinkles. Passing clouds.6 mph88%29.89 "HgN/A
4:20 AM50 °FSprinkles. Partly cloudy.6 mph88%29.89 "HgN/A
3:50 AM50 °FSprinkles. Partly cloudy.5 mph88%29.89 "Hg5 mi
3:20 AM50 °FSprinkles. Partly cloudy.2 mph88%29.89 "Hg5 mi
2:50 AM50 °FPartly cloudy.5 mph88%29.89 "HgN/A
2:20 AM50 °FPartly cloudy.5 mph88%29.89 "HgN/A
1:50 AM52 °FPartly cloudy.6 mph82%29.89 "HgN/A
1:20 AM50 °FPassing clouds.10 mph88%29.89 "HgN/A
12:50 AM50 °FPassing clouds.10 mph88%29.89 "HgN/A
11:50 PM
Thu, Feb 11
50 °FPartly cloudy.10 mph88%29.92 "HgN/A
11:20 PM52 °FPassing clouds.7 mph82%29.92 "HgN/A
10:50 PM52 °FPartly cloudy.7 mph82%29.92 "HgN/A
10:20 PM52 °FPartly cloudy.9 mph82%29.92 "HgN/A
Weather by CustomWeather, © 2016

See weather overviewHow to use our weather pages